Track TATIANA 2 now! 10-day predictions TATIANA 2 is classified as:
1 35868U 09049D 24325.87958241 .00000471 00000-0 22514-3 0 9991 2 35868 98.6378 284.3451 0004818 125.7832 234.3795 14.23788113788171